[[{"header":{"parameterUnit":"m.s-1","parameterCategory":1,"la1":30.2991,"la2":30.254,"lo1":-89.0895,"lo2":-89.0444,"dy":0.0017,"dx":0.0017,"nx":28,"ny":28,"refTime":"2025-05-24T03:00:00:Z","depth":0,"parameterNumber":2,"parameterNumberName":"U-component_of_WINDS"},"data":[0,0,0,0,0,0,0,0,0,0,0,0,0,0,0,0,0,0,0,0,0,0,0,0,0,0,0,0,0,0,0,0,0,0,0,0,0,0,0,0,0,0,0,0,0,0,0,0,0,0,0,0,0,0,0,0,0,0,0.8387,0.8388,0,0.8467,0.8468,0.8468,0.8444,0.8442,0.844,0.8439,0.8523,0.8526,0.853,0,0,0,0,0,0,0,0,0,0,0,0,0,0.8216,0.8219,0.8387,0.8388,0.8389,0.8466,0.8468,0.8469,0.8444,0.8442,0.844,0.8438,0.8521,0.8526,0.8531,0,0,0,0,0,0,0,0,0,0,0,0,0,0.8292,0.822,0.8387,0.8386,0.8387,0.8466,0.8468,0.8469,0.8444,0.8442,0.8439,0.8437,0.852,0.8526,0.8531,0.8617,0,0,0.8549,0.8551,0,0,0,0,0,0,0,0,0.8288,0.8299,0.8385,0.8386,0.8387,0.8443,0.8438,0.8519,0.8445,0.8423,0.8439,0.8436,0.8498,0.8506,0.8526,0.8621,0.8625,0.8549,0.8553,0.8555,0.8557,0,0,0,0,0,0,0,0.8283,0.8295,0.8419,0.8386,0.8388,0.8382,0.839,0.8453,0.8474,0.8424,0.8423,0.8432,0.8498,0.8521,0.8528,0.8626,0.8549,0.8554,0.8558,0.856,0.8795,0.8797,0,0,0,0,0,0,0.8276,0.8291,0.8416,0.8421,0.833,0.8387,0.8396,0.8427,0.8473,0.8477,0.8435,0.8431,0.8512,0.8521,0.8531,0.8634,0.8555,0.856,0.8564,0.8792,0.8795,0.8798,0,0,0,0,0,0,0.8273,0.8288,0.8413,0.8355,0.8371,0.8393,0.8428,0.843,0.8453,0.8481,0.8484,0.8453,0.8511,0.8523,0.8595,0.8636,0.8563,0.8568,0.8789,0.8793,0.8797,0.8841,0,0,0,0,0,0,0.8268,0.8287,0.8319,0.8356,0.8374,0.8476,0.8431,0.8434,0.8462,0.8458,0.8499,0.8504,0.851,0.8587,0.8601,0.8643,0.8573,0.8785,0.8791,0.8796,0.8836,0.8846,0.8855,0,0,0,0,0,0.8262,0.8329,0.8321,0.8336,0.8415,0.8478,0.8488,0.8493,0.8466,0.8499,0.8517,0.8502,0.863,0.8595,0.861,0.8655,0.8782,0.8789,0.8795,0.8832,0.8844,0.8855,0,0,0,0,0,0,0.8297,0.8334,0.8325,0.8406,0.8439,0.8474,0.8516,0.8506,0.8548,0.8543,0.8548,0.8557,0.8631,0.865,0.8611,0.874,0.8702,0.8712,0.8725,0.8737,0.8746,0.874,0.8577,0,0,0,0,0,0.8314,0.8361,0.8391,0.846,0.8477,0.8493,0.8521,0.8522,0.8556,0.857,0.8594,0.8628,0.8676,0.8708,0.8753,0.8839,0.8847,0.8877,0.8886,0.8894,0.8902,0.8949,0.8962,0.8819,0.8819,0.8819,0,0,0.835,0.8376,0.8406,0.8468,0.8493,0.8543,0.8505,0.856,0.8596,0.8579,0.8648,0.8667,0.8706,0.8785,0.8822,0.8804,0.8944,0.8902,0.8908,0.8912,0.8957,0.897,0.8982,0.8823,0.8823,0.8822,0,0,0.844,0.8465,0.8524,0.855,0.8589,0.86,0.8614,0.865,0.8662,0.8731,0.8719,0.8764,0.8846,0.8874,0.8899,0.9,0.8988,0.9015,0.9064,0.9109,0.9121,0.9131,0.9166,0.9179,0.9023,0.9023,0.9023,0,0.848,0.8553,0.8556,0.8611,0.8639,0.8624,0.8685,0.871,0.8763,0.8782,0.8761,0.8864,0.8889,0.8975,0.8999,0.902,0.9037,0.901,0.9119,0.9129,0.9138,0.9172,0.9186,0.9026,0.9026,0.9026,0.9025,0,0.86,0.8651,0.8695,0.8744,0.8777,0.8835,0.8847,0.888,0.8878,0.889,0.8962,0.8992,0.9043,0.9063,0.9062,0.9149,0.9136,0.9117,0.9079,0.9155,0.9187,0.92,0.903,0.9029,0.9028,0.9028,0,0,0.8715,0.8765,0.8781,0.8803,0.8844,0.8884,0.8942,0.8991,0.9019,0.9055,0.9103,0.9173,0.9155,0.9184,0.9186,0.9225,0.9303,0.9201,0.9202,0.9219,0.94,0.9414,0.9429,0.9296,0.9298,0.93,0.9396,0,0.8808,0.8907,0.8911,0.9002,0.9049,0.9036,0.9086,0.9117,0.9131,0.9174,0.9189,0.9238,0.9211,0.9228,0.9267,0.9285,0.9339,0.9278,0.9341,0.9343,0.9331,0.9445,0.946,0.955,0.9409,0.9411,0.9413,0,0.893,0.8969,0.9065,0.9099,0.9119,0.9164,0.9209,0.925,0.9285,0.9292,0.9324,0.932,0.9379,0.9339,0.9421,0.9379,0.9405,0.9418,0.9421,0.9427,0.9382,0.9454,0.9578,0.9592,0.9433,0.9431,0.943,0,0.9003,0.908,0.9147,0.9166,0.9209,0.924,0.9259,0.9292,0.9321,0.9361,0.938,0.9427,0.9452,0.9489,0.9498,0.9468,0.9579,0.954,0.9587,0.9586,0.961,0.9609,0.974,0.9628,0.9628,0.9627,0.9627,0,0.9107,0.9165,0.918,0.9221,0.9287,0.9291,0.9356,0.9373,0.9403,0.9447,0.9439,0.9481,0.9491,0.9535,0.9542,0.9608,0.962,0.9628,0.9629,0.9628,0.9627,0.9645,0.9639,0.9631,0.963,0.9629,0.9629,0,0.9199,0.9212,0.9283,0.9317,0.9327,0.9374,0.9403,0.9443,0.9455,0.9512,0.9525,0.9545,0.9597,0.9609,0.9671,0.9676,0.9754,0.975,0.9742,0.9741,0.9787,0.9782,0.9934,0.9954,0.9829,0.9831,0.9832,0,0.9264,0.9309,0.9347,0.9376,0.9396,0.9443,0.9473,0.9479,0.951,0.9554,0.9588,0.9639,0.9679,0.9762,0.9783,0.983,0.9826,0.9876,0.9833,0.9831,0.9826,0.9823,0.9828,0.9884,0.9886,0.9887,0.9888,0,0.9378,0.9382,0.9424,0.9469,0.9504,0.954,0.9574,0.9598,0.9609,0.9645,0.9697,0.9728,0.9791,0.9841,0.9888,0.9909,0.9901,0.9901,0.9914,0.9914,0.9907,0.991,0.9764,0.9897,0.9896,0.9896,0.9895,0.9895,0.9458,0.9497,0.953,0.9578,0.9604,0.9636,0.9674,0.9692,0.9735,0.9786,0.9787,0.9844,0.9878,0.9941,0.9964,1.0009,0.9994,1.0013,1.0018,1.0022,1.0026,0.99,1.0018,1.0017,1.0017,1.0017,1.0017,0,0.9571,0.9591,0.9635,0.9682,0.972,0.9708,0.9745,0.9778,0.9827,0.986,0.9899,0.9959,1.0008,1.0032,1.008,1.0112,1.0109,1.0124,1.0122,1.0126,1.0037,1.002,1.0125,1.0125,1.0125,1.0125,1.0125,1.0125,0.9634,0.9699,0.9707,0.9785,0.9805,0.986,0.9882,0.9911,0.9937,1.0004,1.0044,1.0059,1.0089,1.0139,1.0183,1.0189,1.0207,1.0224,1.0228,1.0144,1.0133,1.0122,1.0107,1.0228,1.0228,1.0313,1.0314,1.0315]},{"header":{"parameterUnit":"m.s-1","parameterCategory":1,"la1":30.2991,"la2":30.254,"lo1":-89.0895,"lo2":-89.0444,"dy":0.0017,"dx":0.0017,"nx":28,"ny":28,"refTime":"2025-05-24T03:00:00:Z","depth":0,"parameterNumber":3,"parameterNumberName":"V-component_of_WINDS"},"data":[0,0,0,0,0,0,0,0,0,0,0,0,0,0,0,0,0,0,0,0,0,0,0,0,0,0,0,0,0,0,0,0,0,0,0,0,0,0,0,0,0,0,0,0,0,0,0,0,0,0,0,0,0,0,0,0,0,0,1.9058,1.9059,0,1.9139,1.914,1.9141,1.9094,1.9092,1.909,1.9088,1.9169,1.9173,1.9178,0,0,0,0,0,0,0,0,0,0,0,0,0,1.8859,1.8863,1.9058,1.9059,1.906,1.9139,1.914,1.9141,1.9095,1.9092,1.9089,1.9087,1.9168,1.9173,1.9178,0,0,0,0,0,0,0,0,0,0,0,0,0,1.8944,1.8864,1.9057,1.9046,1.9046,1.9139,1.914,1.9142,1.9095,1.9092,1.9088,1.9085,1.9166,1.9172,1.9179,1.9287,0,0,1.9198,1.9201,0,0,0,0,0,0,0,0,1.8939,1.8951,1.9047,1.9047,1.9047,1.9103,1.91,1.919,1.9096,1.9076,1.9088,1.9084,1.915,1.9157,1.918,1.9291,1.9294,1.9199,1.9203,1.9206,1.9207,0,0,0,0,0,0,0,1.8933,1.8947,1.909,1.9048,1.9048,1.9036,1.9044,1.9117,1.9131,1.9078,1.9075,1.9085,1.9149,1.9174,1.9182,1.9295,1.9199,1.9204,1.9208,1.9211,1.9498,1.9502,0,0,0,0,0,0,1.8928,1.8943,1.9087,1.9092,1.8983,1.9042,1.9052,1.9088,1.913,1.9133,1.9088,1.9083,1.9165,1.9174,1.9184,1.9314,1.9205,1.9212,1.9215,1.9494,1.9499,1.9503,0,0,0,0,0,0,1.8924,1.8942,1.9084,1.9017,1.9034,1.9049,1.9091,1.9092,1.9117,1.9138,1.914,1.9111,1.9162,1.9175,1.9262,1.9316,1.9214,1.922,1.949,1.9496,1.9501,1.9574,0,0,0,0,0,0,1.8919,1.894,1.8982,1.9018,1.9038,1.9161,1.9095,1.9096,1.9128,1.9122,1.916,1.9163,1.9161,1.9252,1.9268,1.9323,1.9225,1.9485,1.9492,1.9499,1.9567,1.9582,1.9594,0,0,0,0,0,1.8912,1.8999,1.8985,1.9003,1.9091,1.9164,1.9175,1.9172,1.9133,1.9175,1.9188,1.9162,1.9307,1.9262,1.9279,1.9337,1.9482,1.949,1.9499,1.9561,1.9579,1.9594,0,0,0,0,0,0,1.897,1.9004,1.8988,1.909,1.9125,1.9156,1.9209,1.9191,1.9237,1.9229,1.9221,1.923,1.932,1.9337,1.9285,1.9443,1.9388,1.9401,1.943,1.9447,1.946,1.9455,1.9231,0,0,0,0,0,1.8994,1.9052,1.9078,1.9166,1.9184,1.9194,1.9226,1.922,1.9255,1.9269,1.9289,1.9324,1.9377,1.9413,1.9463,1.9568,1.9576,1.9617,1.963,1.9641,1.9652,1.9709,1.9728,1.9531,1.9531,1.9531,0,0,1.9046,1.9072,1.9109,1.9178,1.9204,1.9264,1.9206,1.9272,1.9316,1.9279,1.9362,1.9378,1.9416,1.9512,1.9556,1.9529,1.9708,1.9652,1.9661,1.9666,1.972,1.9739,1.9755,1.9537,1.9535,1.9535,0,0,1.917,1.9196,1.9271,1.9299,1.9339,1.9345,1.9363,1.9397,1.9407,1.949,1.9464,1.9515,1.9607,1.9635,1.9662,1.9796,1.9773,1.9812,1.9884,1.9939,1.9955,1.9969,2.0017,2.0034,1.9823,1.9823,1.9823,0,1.9229,1.9319,1.9312,1.938,1.9411,1.9381,1.9457,1.9483,1.9538,1.956,1.9529,1.9644,1.9667,1.977,1.9803,1.9825,1.9845,1.9809,1.9953,1.9967,1.998,2.0026,2.0044,1.9828,1.9827,1.9827,1.9826,0,1.9389,1.9452,1.9508,1.9562,1.9599,1.9671,1.9674,1.9713,1.9703,1.9711,1.9796,1.9823,1.9878,1.9902,1.9893,2.0003,1.9986,1.9954,1.9899,2.0003,2.0046,2.0064,1.9834,1.9833,1.9831,1.983,0,0,1.9555,1.9604,1.9624,1.9649,1.969,1.9738,1.9807,1.9862,1.9895,1.9933,1.9991,2.0069,2.004,2.007,2.0064,2.0112,2.0217,2.0075,2.0076,2.0101,2.0341,2.0366,2.0386,2.0202,2.0205,2.0208,2.0338,0,1.9682,1.9805,1.9801,1.9915,1.9972,1.9943,2.0004,2.0036,2.0045,2.0094,2.0104,2.016,2.0117,2.0135,2.0182,2.0195,2.0266,2.0185,2.0256,2.0258,2.0249,2.0409,2.0435,2.0557,2.0355,2.0358,2.036,0,1.9849,1.9893,2.0013,2.0046,2.007,2.0125,2.0174,2.0221,2.0256,2.026,2.0293,2.0278,2.0348,2.029,2.0385,2.0331,2.0359,2.0369,2.0374,2.0381,2.0317,2.0421,2.0595,2.0614,2.0386,2.0384,2.0382,0,1.9958,2.0048,2.0131,2.0152,2.0193,2.0232,2.025,2.0282,2.0314,2.0357,2.0378,2.0428,2.0456,2.0494,2.0493,2.0451,2.059,2.0531,2.0595,2.0595,2.0627,2.0625,2.0809,2.0643,2.0643,2.0642,2.0642,0,2.0103,2.0177,2.0181,2.0233,2.0315,2.0309,2.039,2.0404,2.0432,2.0486,2.0463,2.0513,2.0508,2.0558,2.0557,2.0637,2.0649,2.0653,2.0653,2.0656,2.0656,2.0676,2.0668,2.0647,2.0646,2.0645,2.0644,0,2.024,2.0245,2.0334,2.0365,2.0374,2.0434,2.0459,2.0508,2.0515,2.0582,2.0597,2.0608,2.0666,2.0669,2.0735,2.0734,2.0831,2.082,2.082,2.0819,2.0882,2.0876,2.1086,2.1113,2.0929,2.093,2.0932,0,2.0332,2.0389,2.0426,2.046,2.0481,2.0536,2.057,2.0565,2.06,2.0644,2.0687,2.0743,2.0787,2.0881,2.0894,2.0945,2.0936,2.1005,2.0943,2.0945,2.0938,2.0935,2.0941,2.1018,2.102,2.1022,2.1023,0,2.0496,2.0496,2.0545,2.0596,2.0636,2.0676,2.0712,2.0741,2.074,2.0781,2.0841,2.0875,2.0943,2.0999,2.1048,2.1065,2.1045,2.1042,2.106,2.1065,2.1063,2.1066,2.0855,2.1038,2.1037,2.1036,2.1035,2.1034,2.0614,2.0664,2.0697,2.0753,2.078,2.0814,2.0861,2.0874,2.0923,2.0979,2.0972,2.1038,2.107,2.1134,2.1156,2.1207,2.1182,2.1208,2.1214,2.1221,2.1228,2.1054,2.1215,2.1215,2.1214,2.1214,2.1214,0,2.0778,2.0798,2.0849,2.0901,2.0944,2.0921,2.0959,2.0997,2.1056,2.1088,2.1132,2.12,2.1254,2.1271,2.1323,2.136,2.1352,2.1374,2.1372,2.1376,2.1246,2.1226,2.138,2.138,2.138,2.138,2.138,2.138,2.0868,2.095,2.0954,2.1048,2.1067,2.1132,2.1157,2.1188,2.1213,2.1291,2.1335,2.1346,2.1372,2.1425,2.1473,2.1476,2.1497,2.1524,2.1523,2.1402,2.1385,2.1369,2.1351,2.1528,2.1528,2.1649,2.165,2.1651]}]]